EW6000 Weather Reports


time (UTC)temp
C
wind
direction
speed
KPH
gust
KPH
rain 1hr
cm
rain 24hr
cm
rain mn
cm
humidity
%
barometer
mb
20260505102003 7 278 1.6 4.8 0.00 0.00 0.00 76 1012.6
20260505101504 7 267 1.6 4.8 0.00 0.00 0.00 75 1012.3
20260505101003 7 257 0.0 3.2 0.00 0.00 0.00 76 1012.1
20260505100502 7 258 0.0 1.6 0.00 0.00 0.00 75 1012.0
20260505100003 7 262 0.0 3.2 0.00 0.00 0.00 74 1012.0
20260505095003 7 308 3.2 8.0 0.00 0.00 0.00 73 1012.2
20260505094502 7 309 3.2 8.0 0.00 0.00 0.00 73 1012.4
20260505094003 7 306 3.2 8.0 0.00 0.00 0.00 73 1012.5
20260505093503 7 310 1.6 6.4 0.00 0.00 0.00 73 1012.4
20260505093005 7 305 1.6 4.8 0.00 0.00 0.00 73 1012.1
20260505092502 7 307 3.2 6.4 0.00 0.00 0.00 73 1012.1
20260505092004 7 329 4.8 11.3 0.00 0.00 0.00 73 1012.2
20260505091503 7 340 4.8 11.3 0.00 0.00 0.00 70 1012.2
20260505091002 7 351 3.2 8.0 0.00 0.00 0.00 69 1012.1
20260505090503 7 349 3.2 11.3 0.00 0.00 0.00 68 1012.0
20260505090003 7 333 4.8 14.5 0.00 0.00 0.00 70 1012.1
20260505085503 7 321 3.2 14.5 0.00 0.00 0.00 69 1012.1
20260505085003 7 320 3.2 8.0 0.00 0.00 0.00 68 1012.1
20260505084502 7 323 3.2 8.0 0.00 0.00 0.00 68 1012.1
20260505084003 7 324 3.2 8.0 0.00 0.00 0.00 68 1012.0
20260505083502 7 328 3.2 9.7 0.00 0.00 0.00 67 1012.1
20260505082503 7 333 4.8 11.3 0.00 0.00 0.00 67 1012.1
20260505082003 7 344 3.2 8.0 0.00 0.00 0.00 66 1012.0
20260505081503 7 357 4.8 8.0 0.00 0.00 0.00 66 1011.9
20260505081003 7 354 6.4 11.3 0.00 0.00 0.00 66 1011.9
20260505080502 8 351 6.4 12.9 0.00 0.00 0.00 65 1011.7
20260505080003 8 355 6.4 12.9 0.00 0.00 0.00 65 1012.0
20260505075503 8 357 8.0 16.1 0.00 0.00 0.00 64 1012.1
20260505074003 8 355 11.3 19.3 0.00 0.00 0.00 63 1012.0
20260505073503 8 354 12.9 20.9 0.00 0.00 0.00 62 1012.1
20260505073003 8 357 12.9 22.5 0.00 0.00 0.00 61 1012.2
20260505072503 8 357 14.5 29.0 0.00 0.00 0.00 60 1012.1
20260505072004 8 358 16.1 29.0 0.00 0.00 0.00 58 1012.1
20260505071503 9 3 14.5 30.6 0.00 0.00 0.00 57 1012.1
20260505071003 9 357 12.9 30.6 0.00 0.00 0.00 56 1012.2
20260505070502 9 353 11.3 22.5 0.00 0.00 0.00 55 1012.1
20260505070003 9 358 9.7 20.9 0.00 0.00 0.00 55 1012.1
20260505065503 9 357 9.7 19.3 0.00 0.00 0.00 55 1012.0
20260505065003 9 2 9.7 19.3 0.00 0.00 0.00 55 1011.9
20260505064503 9 2 9.7 19.3 0.00 0.00 0.00 56 1011.8
20260505064003 9 355 8.0 17.7 0.00 0.00 0.00 56 1011.7
20260505063503 9 356 9.7 17.7 0.00 0.00 0.00 55 1011.7
20260505063003 9 4 6.4 14.5 0.00 0.00 0.00 55 1011.7
20260505062503 9 9 4.8 14.5 0.00 0.00 0.00 56 1011.7
20260505062003 9 7 6.4 14.5 0.00 0.00 0.00 56 1011.7
20260505061502 9 8 4.8 12.9 0.00 0.00 0.00 56 1011.6
20260505061003 10 15 3.2 8.0 0.00 0.00 0.00 57 1011.6
20260505060503 10 16 3.2 9.7 0.00 0.00 0.00 57 1011.6
20260505060003 10 16 3.2 12.9 0.00 0.00 0.00 57 1011.7
20260505055503 10 14 3.2 12.9 0.00 0.00 0.00 57 1011.5
20260505055003 10 19 3.2 6.4 0.00 0.00 0.00 57 1011.4
20260505054502 10 27 3.2 4.8 0.00 0.00 0.00 57 1011.3
20260505054003 10 16 3.2 8.0 0.00 0.00 0.00 57 1011.2
20260505053503 10 11 1.6 8.0 0.00 0.00 0.00 58 1011.2
20260505053003 10 29 1.6 6.4 0.00 0.00 0.00 58 1011.1
20260505052503 10 36 3.2 6.4 0.00 0.00 0.00 57 1011.1
20260505052003 10 28 3.2 9.7 0.00 0.00 0.00 57 1011.0
20260505051503 10 18 4.8 11.3 0.00 0.00 0.00 57 1011.0
20260505051003 10 14 4.8 16.1 0.00 0.00 0.00 57 1010.9
20260505050504 10 10 4.8 16.1 0.00 0.00 0.00 56 1010.9
20260505041503 10 29 3.2 6.4 0.00 0.00 0.00 57 1011.1
20260505041003 10 30 3.2 6.4 0.00 0.00 0.00 56 1011.2
20260505040503 10 20 3.2 14.5 0.00 0.00 0.00 56 1011.3
20260505040004 10 17 3.2 14.5 0.00 0.00 0.00 55 1011.3
20260505035503 10 25 3.2 8.0 0.00 0.00 0.00 55 1011.3
20260505035004 10 26 4.8 9.7 0.00 0.00 0.00 55 1011.3
20260505034503 10 20 4.8 9.7 0.00 0.00 0.00 54 1011.2
20260505034003 10 23 4.8 9.7 0.00 0.00 0.00 54 1011.1
20260505033503 10 27 4.8 11.3 0.00 0.00 0.00 54 1011.2
20260505032504 11 21 4.8 11.3 0.00 0.00 0.00 53 1011.1
20260505032004 11 26 6.4 11.3 0.00 0.00 0.00 54 1011.1
20260505031504 11 21 6.4 19.3 0.00 0.00 0.00 53 1011.2
20260505031003 11 12 8.0 19.3 0.00 0.00 0.00 53 1011.1
20260505030503 11 4 8.0 16.1 0.00 0.00 0.00 53 1011.3
20260505030004 11 5 8.0 19.3 0.00 0.00 0.00 53 1011.4
20260505025004 11 3 9.7 25.7 0.00 0.00 0.00 52 1011.1
20260505024004 11 7 9.7 22.5 0.00 0.00 0.00 52 1011.1
20260505023004 12 15 8.0 25.7 0.00 0.00 0.00 50 1010.8
20260505022004 12 11 8.0 22.5 0.00 0.00 0.00 48 1010.6
20260505021503 12 13 8.0 20.9 0.00 0.00 0.00 47 1010.5
20260505021003 12 14 8.0 20.9 0.00 0.00 0.00 47 1010.3
20260505020003 13 17 9.7 20.9 0.00 0.00 0.00 47 1009.6
20260505015503 13 15 11.3 24.1 0.00 0.00 0.00 46 1009.3
20260505015004 13 11 11.3 24.1 0.00 0.00 0.00 45 1009.4
20260505014504 13 17 11.3 32.2 0.00 0.00 0.00 45 1009.3
20260505014003 14 24 11.3 32.2 0.00 0.00 0.00 44 1009.2
20260505013503 14 25 8.0 24.1 0.00 0.00 0.00 45 1009.4
20260505013003 15 20 6.4 14.5 0.00 0.00 0.00 45 1009.1
20260505012504 15 22 8.0 22.5 0.00 0.00 0.00 45 1009.2
20260505011504 15 9 9.7 22.5 0.00 0.00 0.00 45 1008.9
20260505011003 15 8 9.7 24.1 0.00 0.00 0.00 44 1008.6
20260505010503 15 4 11.3 25.7 0.00 0.00 0.00 45 1008.3
20260505010004 15 3 11.3 27.4 0.00 0.00 0.00 45 1008.5
20260505005504 15 4 12.9 30.6 0.00 0.00 0.00 45 1008.2
20260505005004 15 5 12.9 30.6 0.00 0.00 0.00 45 1008.0
20260505004004 15 4 12.9 29.0 0.00 0.00 0.00 45 1008.0
20260505003504 15 4 14.5 30.6 0.00 0.00 0.00 45 1007.9
20260505003003 15 4 12.9 30.6 0.00 0.00 0.00 45 1007.9
20260505002504 16 9 9.7 32.2 0.00 0.00 0.00 45 1007.9
20260505002004 16 19 9.7 32.2 0.00 0.00 0.00 44 1007.7
20260505001504 16 15 11.3 32.2 0.00 0.00 0.00 43 1007.8
20260505000504 16 7 17.7 35.4 0.00 0.00 0.00 42 1007.6
20260505000004 17 10 14.5 35.4 0.00 0.00 0.00 40 1007.6
20260504235503 17 20 9.7 22.5 0.00 0.00 0.00 39 1007.5
20260504235004 17 13 11.3 25.7 0.00 0.00 0.00 39 1007.4
20260504233504 18 10 12.9 30.6 0.00 0.00 0.00 38 1007.2
20260504233003 18 5 12.9 30.6 0.00 0.00 0.00 37 1007.2
20260504232504 18 12 11.3 33.8 0.00 0.00 0.00 36 1007.1
20260504231504 19 18 11.3 24.1 0.00 0.00 0.00 35 1007.0
20260504231004 19 21 11.3 24.1 0.00 0.00 0.00 34 1006.9
20260504230503 19 18 11.3 24.1 0.00 0.00 0.00 35 1006.9
20260504230004 20 21 9.7 24.1 0.00 0.00 0.00 34 1006.9
20260504225503 20 29 8.0 17.7 0.00 0.00 0.00 35 1006.8
20260504225003 19 28 11.3 19.3 0.00 0.00 0.00 34 1006.8
20260504224504 20 17 9.7 24.1 0.00 0.00 0.00 34 1006.7
20260504224004 20 14 9.7 24.1 0.00 0.00 0.00 34 1006.7
20260504223504 20 10 11.3 22.5 0.00 0.00 0.00 33 1006.6
20260504223004 20 2 12.9 24.1 0.00 0.00 0.00 33 1006.5
20260504222504 20 3 11.3 24.1 0.00 0.00 0.00 33 1006.5
20260504222003 20 12 9.7 24.1 0.00 0.00 0.00 33 1006.4
20260504221503 20 17 9.7 22.5 0.00 0.00 0.00 33 1006.4
20260504221004 20 15 11.3 24.1 0.00 0.00 0.00 32 1006.4
20260504220503 20 11 12.9 24.1 0.00 0.00 0.00 32 1006.3
20260504220003 20 7 12.9 24.1 0.00 0.00 0.00 32 1006.4
20260504215505 20 10 11.3 24.1 0.00 0.00 0.00 32 1006.4
20260504215003 20 22 9.7 22.5 0.00 0.00 0.00 33 1006.4
20260504214504 20 33 9.7 20.9 0.00 0.00 0.00 31 1006.3
20260504214005 21 27 9.7 22.5 0.00 0.00 0.00 32 1006.5
20260504213503 20 11 11.3 25.7 0.00 0.00 0.00 32 1006.6
20260504213004 20 15 11.3 25.7 0.00 0.00 0.00 32 1006.5
20260504212504 20 35 9.7 19.3 0.00 0.00 0.00 32 1006.4
20260504211504 20 11 11.3 30.6 0.00 0.00 0.00 31 1006.5
20260504211003 20 359 16.1 30.6 0.00 0.00 0.00 31 1006.5
20260504210504 20 358 17.7 30.6 0.00 0.00 0.00 30 1006.5
20260504210004 20 359 16.1 30.6 0.00 0.00 0.00 31 1006.6
20260504205457 21 3 12.9 25.7 0.00 0.00 0.00 31 1006.6
20260504204956 21 13 9.7 25.7 0.00 0.00 0.00 31 1006.7
20260504203959 21 26 9.7 24.1 0.00 0.00 0.00 30 1006.7
20260504203457 21 13 11.3 25.7 0.00 0.00 0.00 30 1006.7
20260504202957 21 12 9.7 25.7 0.00 0.00 0.00 31 1006.7
20260504202457 21 15 11.3 32.2 0.00 0.00 0.00 31 1006.8
20260504201957 21 4 14.5 32.2 0.00 0.00 0.00 31 1006.8
20260504200957 20 4 16.1 30.6 0.00 0.00 0.00 31 1006.9
20260504200457 20 358 17.7 30.6 0.00 0.00 0.00 30 1006.8
20260504195457 21 6 16.1 35.4 0.00 0.00 0.00 31 1007.0
20260504195005 21 4 16.1 35.4 0.00 0.00 0.00 30 1006.9
20260504194457 21 2 16.1 32.2 0.00 0.00 0.00 32 1006.9
20260504193957 21 5 12.9 32.2 0.00 0.00 0.00 30 1006.6
20260504193457 21 18 9.7 25.7 0.00 0.00 0.00 32 1006.6
20260504192457 21 22 11.3 25.7 0.00 0.00 0.00 31 1006.5
20260504191957 21 15 11.3 20.9 0.00 0.00 0.00 31 1006.5
20260504190957 21 22 12.9 29.0 0.00 0.00 0.00 30 1006.4
20260504190457 21 33 11.3 29.0 0.00 0.00 0.00 32 1006.3
20260504184958 21 12 12.9 25.7 0.00 0.00 0.00 33 1006.2
20260504184457 20 14 14.5 27.4 0.00 0.00 0.00 33 1006.3
20260504183457 21 10 12.9 32.2 0.00 0.00 0.00 32 1006.2
20260504182957 21 18 12.9 32.2 0.00 0.00 0.00 35 1006.2
20260504181958 20 6 14.5 33.8 0.00 0.00 0.00 35 1006.2
20260504181457 20 7 14.5 33.8 0.00 0.00 0.00 34 1006.2
20260504180957 20 8 14.5 32.2 0.00 0.00 0.00 36 1006.2
20260504180457 20 8 14.5 32.2 0.00 0.00 0.00 38 1006.4
20260504175957 20 11 12.9 32.2 0.00 0.00 0.00 38 1006.3
20260504175457 20 14 12.9 27.4 0.00 0.00 0.00 40 1006.4
20260504174957 20 10 12.9 32.2 0.00 0.00 0.00 41 1006.4
20260504174457 20 2 14.5 32.2 0.00 0.00 0.00 41 1006.4
20260504173956 20 4 14.5 32.2 0.00 0.00 0.00 41 1006.5
20260504173457 20 6 14.5 32.2 0.00 0.00 0.00 42 1006.6
20260504172957 19 359 17.7 33.8 0.00 0.00 0.00 42 1006.5
20260504172457 19 354 19.3 35.4 0.00 0.00 0.00 42 1006.6
20260504170957 20 355 19.3 45.1 0.00 0.00 0.00 40 1006.5
20260504170458 20 358 16.1 29.0 0.00 0.00 0.00 40 1006.5
20260504150957 17 293 6.4 11.3 0.00 0.00 0.00 45 1006.0
20260504140958 12 270 3.2 8.0 0.00 0.00 0.00 60 1006.3
20260504140457 12 273 3.2 8.0 0.00 0.00 0.00 61 1006.3
20260504130457 8 261 3.2 6.4 0.00 0.00 0.00 74 1006.1
20260504110458 6 314 0.0 1.6 0.00 0.00 0.00 82 1006.0